This is the latest recevied weather packets stored in our database for station/object DG9BJA-13. If no packets are shown the sender has not sent any weather packets the latest 10 day(s).
| Time | Temp. | Humidity | Pressure | Rain* | Wind** | Luminosity | Snow |
|---|---|---|---|---|---|---|---|
| 1776923775 | 3.89° C | 89% | 1028.8 hPa | 0 mm | - | 91 W/m² | - |
| 1776923175 | 3.89° C | 89% | 1028.8 hPa | 0 mm | - | 72 W/m² | - |
| 1776922575 | 3.33° C | 89% | 1028.8 hPa | 0 mm | - | 67 W/m² | - |
| 1776921977 | 3.33° C | 89% | 1028.8 hPa | 0 mm | - | 46 W/m² | - |
| 1776921377 | 3.33° C | 89% | 1028.8 hPa | 0 mm | - | 33 W/m² | - |
| 1776920777 | 3.33° C | 89% | 1028.7 hPa | 0 mm | - | 25 W/m² | - |
| 1776920177 | 3.33° C | 89% | 1028.6 hPa | 0 mm | - | 23 W/m² | - |
| 1776919577 | 2.78° C | 89% | 1028.6 hPa | 0 mm | - | 14 W/m² | - |
| 1776918977 | 2.78° C | 89% | 1028.5 hPa | 0 mm | - | 11 W/m² | - |
| 1776918377 | 3.33° C | 89% | 1028.4 hPa | 0 mm | - | 5 W/m² | - |
| 1776917777 | 3.33° C | 90% | 1028.4 hPa | 0 mm | - | 0 W/m² | - |
| 1776917177 | 3.33° C | 90% | 1028.5 hPa | 0 mm | - | 0 W/m² | - |
| 1776916577 | 2.78° C | 90% | 1028.4 hPa | 0 mm | - | 0 W/m² | - |
| 1776915977 | 2.78° C | 90% | 1028.4 hPa | 0 mm | - | 0 W/m² | - |
| 1776915377 | 2.78° C | 90% | 1028.4 hPa | 0 mm | - | 0 W/m² | - |
| 1776914777 | 2.78° C | 90% | 1028.6 hPa | 0 mm | - | 0 W/m² | - |
| 1776914177 | 2.78° C | 90% | 1028.6 hPa | 0 mm | - | 0 W/m² | - |
| 1776913577 | 2.78° C | 90% | 1028.6 hPa | 0 mm | - | 0 W/m² | - |
| 1776912977 | 2.78° C | 90% | 1028.7 hPa | 0 mm | - | 0 W/m² | - |
| 1776912377 | 2.78° C | 90% | 1028.7 hPa | 0 mm | - | 0 W/m² | - |
| 1776911776 | 2.78° C | 90% | 1028.7 hPa | 0 mm | - | 0 W/m² | - |
| 1776911177 | 2.78° C | 90% | 1028.7 hPa | 0 mm | - | 0 W/m² | - |
| 1776910576 | 2.78° C | 90% | 1028.7 hPa | 0 mm | - | 0 W/m² | - |
| 1776909977 | 2.78° C | 90% | 1028.6 hPa | 0 mm | - | 0 W/m² | - |
| 1776909376 | 2.78° C | 90% | 1028.5 hPa | 0 mm | - | 0 W/m² | - |
* Rain latest hour (hover to see other rain measurements)
** Current wind speed in m/s (hover to see current wind gust speed)